This demonstration page uses our WeatherBlox Daily Observations layout. Learn more.

Left ArrowRight Arrow

Hourly Observations for May 8, 2021

Temp ( °F °C ) Dew Point ( °F °C ) Humidity (%) Winds ( mph kmh ) Pressure ( in mb ) Visibility ( mi km ) Precip ( " mm )
12:15 am 00:15 Clear 42 5.4 32 0.2 69 69 N 9 15 30.09 1019 10 16 0.00 0.00
12:35 am 00:35 Clear 41 5.1 33 0.4 72 72 N 8 13 30.09 1019 10 16 0.00 0.00
12:55 am 00:55 Clear 41 4.8 33 0.3 73 73 N 7 11 30.09 1019 10 16 0.00 0.00
1:15 am 01:15 Clear 40 4.6 32 -0.1 72 72 N 8 13 30.09 1019 10 16 0.00 0.00
1:35 am 01:35 Clear 40 4.2 32 0 74 74 N 6 9 30.09 1019 10 16 0.00 0.00
1:55 am 01:55 Clear 38 3.5 32 0 78 78 NNW 6 9 30.09 1019 10 16 0.00 0.00
2:15 am 02:15 Clear 38 3.4 32 0 79 79 NNW 6 9 30.10 1019 10 16 0.00 0.00
2:35 am 02:35 Clear 38 3.3 31 -0.4 77 77 NNW 6 9 30.10 1019 10 16 0.00 0.00
2:55 am 02:55 Clear 37 2.6 31 -0.7 79 79 NW 5 7 30.10 1019 10 16 0.00 0.00
3:15 am 03:15 Clear 37 2.5 31 -0.4 81 81 NW 6 9 30.11 1020 10 16 0.00 0.00
3:35 am 03:35 Clear 36 2.3 31 -0.5 82 82 NW 6 9 30.11 1020 10 16 0.00 0.00
3:55 am 03:55 Clear 36 2 31 -0.5 84 84 NNW 6 9 30.11 1020 10 16 0.00 0.00
4:15 am 04:15 Clear 36 2 31 -0.6 83 83 NNW 7 11 30.11 1020 10 16 0.00 0.00
4:35 am 04:35 Clear 35 1.9 31 -0.7 83 83 NNW 6 9 30.12 1020 10 16 0.00 0.00
4:55 am 04:55 Clear 35 1.7 30 -1 82 82 NNW 6 9 30.13 1020 10 16 0.00 0.00
5:15 am 05:15 Clear 35 1.5 30 -1 84 84 NNW 6 9 30.13 1020 10 16 0.00 0.00
5:35 am 05:35 Clear 35 1.5 31 -0.7 85 85 N 6 9 30.14 1021 10 16 0.00 0.00
5:55 am 05:55 Clear 35 1.4 31 -0.8 85 85 N 3 6 30.14 1021 10 16 0.00 0.00
6:15 am 06:15 Clear 34 1.3 31 -0.8 86 86 N 5 7 30.14 1021 10 16 0.00 0.00
6:35 am 06:35 Clear 34 1 31 -0.8 88 88 N 3 6 30.15 1021 10 16 0.00 0.00
6:55 am 06:55 Sunny 33 0.6 31 -0.7 91 91 N 3 6 30.16 1021 10 16 0.00 0.00
7:15 am 07:15 Sunny 34 1.2 31 -0.5 89 89 N 5 7 30.15 1021 10 16 0.00 0.00
7:35 am 07:35 Sunny 36 2.1 31 -0.4 84 84 N 6 9 30.16 1021 10 16 0.00 0.00
7:55 am 07:55 Sunny 37 2.7 32 0 83 83 N 5 7 30.18 1022 10 16 0.00 0.00
8:15 am 08:15 Sunny 38 3.5 33 0.4 80 80 N 3 6 30.17 1022 10 16 0.00 0.00
8:35 am 08:35 Sunny 39 4.1 33 0.7 79 79 N 5 7 30.18 1022 10 16 0.00 0.00
8:55 am 08:55 Sunny 41 4.8 34 1 77 77 NE 6 9 30.19 1022 10 16 0.00 0.00
9:15 am 09:15 Sunny 42 5.4 33 0.7 72 72 NE 5 7 30.19 1022 10 16 0.00 0.00
9:35 am 09:35 Sunny 43 6.2 34 1.3 71 71 NE 6 9 30.18 1022 10 16 0.00 0.00
9:55 am 09:55 Sunny 44 6.5 33 0.3 65 65 NE 6 9 30.18 1022 10 16 0.00 0.00
10:15 am 10:15 Sunny 44 6.9 34 0.9 66 66 E 5 7 30.18 1022 10 16 0.00 0.00
10:35 am 10:35 Sunny 46 7.6 34 1 63 63 NE 7 11 30.18 1022 10 16 0.00 0.00
10:55 am 10:55 Sunny 47 8.1 35 1.4 63 63 NNE 6 9 30.18 1022 10 16 0.00 0.00
11:15 am 11:15 Sunny 47 8.3 33 0.3 57 57 NE 6 9 30.18 1022 10 16 0.00 0.00
11:35 am 11:35 Sunny 48 8.9 35 1.5 60 60 ENE 7 11 30.16 1021 10 16 0.00 0.00
11:55 am 11:55 Partly Cloudy 49 9.7 36 2.3 60 60 ENE 5 7 30.17 1022 10 16 0.00 0.00
12:15 pm 12:15 Partly Cloudy 49 9.4 33 0.8 55 55 NW 3 6 30.17 1022 10 16 0.00 0.00
12:35 pm 12:35 Partly Cloudy 49 9.4 33 0.8 55 55 ENE 7 11 30.16 1021 10 16 0.00 0.00
12:55 pm 12:55 Partly Cloudy 50 10.2 35 1.5 55 55 N 7 11 30.16 1021 10 16 0.00 0.00
1:15 pm 13:15 Sunny 51 10.5 35 1.6 54 54 WSW 7 11 30.15 1021 10 16 0.00 0.00
1:35 pm 13:35 Mostly Cloudy 50 10.1 34 1.1 54 54 Calm 30.15 1021 10 16 0.00 0.00
1:55 pm 13:55 Partly Cloudy 51 10.6 34 1.1 52 52 NW 6 9 30.14 1021 10 16 0.00 0.00
2:15 pm 14:15 Sunny 51 10.6 33 0.4 50 50 Calm 30.13 1020 10 16 0.00 0.00
2:35 pm 14:35 Sunny 51 10.5 32 -0.2 48 48 Calm 30.12 1020 10 16 0.00 0.00
2:55 pm 14:55 Sunny 53 11.6 34 1 48 48 E 6 9 30.12 1020 10 16 0.00 0.00
3:15 pm 15:15 Sunny 53 11.5 33 0.8 48 48 SSE 3 6 30.12 1020 10 16 0.00 0.00
3:35 pm 15:35 Sunny 53 11.6 32 0.2 46 46 WNW 3 6 30.11 1019 10 16 0.00 0.00
3:55 pm 15:55 Sunny 54 12 34 1 47 47 Calm 30.10 1019 10 16 0.00 0.00
4:15 pm 16:15 Sunny 54 12.3 35 1.6 48 48 Calm 30.09 1019 10 16 0.00 0.00
4:35 pm 16:35 Sunny 55 12.9 34 1.1 45 45 SW 5 7 30.08 1019 10 16 0.00 0.00
4:55 pm 16:55 Sunny 55 12.7 33 0.8 44 44 SSW 7 11 30.08 1019 10 16 0.00 0.00
5:15 pm 17:15 Sunny 55 12.8 33 0.4 43 43 NE 3 6 30.08 1019 10 16 0.00 0.00
5:35 pm 17:35 Partly Cloudy 55 12.6 33 0.7 44 44 Calm 30.07 1018 10 16 0.00 0.00
5:55 pm 17:55 Partly Cloudy 55 12.5 34 0.9 45 45 Calm 30.07 1018 10 16 0.00 0.00
6:15 pm 18:15 Partly Cloudy 55 12.6 31 -0.7 40 40 Calm 30.06 1018 10 16 0.00 0.00
6:35 pm 18:35 Mostly Cloudy 55 12.6 33 0.4 43 43 Calm 30.06 1018 10 16 0.00 0.00
6:55 pm 18:55 Mostly Cloudy 55 12.5 32 -0.1 42 42 Calm 30.07 1018 10 16 0.00 0.00
7:15 pm 19:15 Mostly Cloudy 55 12.5 31 -0.5 41 41 Calm 30.06 1018 10 16 0.00 0.00
7:35 pm 19:35 Cloudy 54 12.2 36 2.1 50 50 NE 6 9 30.05 1018 10 16 0.00 0.00
7:55 pm 19:55 Cloudy 53 11.8 35 1.8 51 51 NE 7 11 30.03 1017 10 16 0.00 0.00
8:15 pm 20:15 Cloudy 53 11.6 35 1.9 52 52 NNE 5 7 30.05 1017 10 16 0.00 0.00
8:35 pm 20:35 Cloudy 53 11.5 36 2.2 53 53 ENE 7 11 30.04 1017 10 16 0.00 0.00
8:55 pm 20:55 Cloudy 52 11.2 35 1.9 53 53 E 7 11 30.02 1016 10 16 0.00 0.00
9:15 pm 21:15 Cloudy 52 11.1 36 2.3 55 55 ENE 6 9 30.03 1017 10 16 0.00 0.00
9:35 pm 21:35 Cloudy 52 11 36 2.1 55 55 E 5 7 30.03 1017 10 16 0.00 0.00
9:55 pm 21:55 Cloudy 52 10.9 36 2.4 56 56 E 7 11 30.02 1017 10 16 0.00 0.00
10:15 pm 22:15 Cloudy with Drizzle 51 10.7 37 2.7 58 58 ENE 7 11 30.02 1017 10 16 0.00 0.00
10:35 pm 22:35 Cloudy 51 10.6 37 2.6 58 58 E 7 11 30.02 1017 10 16 0.00 0.00
10:55 pm 22:55 Cloudy 50 10.2 37 2.6 60 60 ENE 12 19 30.02 1017 10 16 0.00 0.00
11:15 pm 23:15 Cloudy with Light Rain 48 9 39 4 71 71 NNE 8 13 30.07 1018 10 16 0.00 0.00
11:35 pm 23:35 Cloudy with Drizzle 47 8.5 40 4.4 76 76 ENE 8 13 30.05 1017 10 16 0.00 0.00
11:55 pm 23:55 Cloudy 47 8.1 41 5 81 81 ENE 9 15 30.05 1018 10 16 0.00 0.00

Powered by AerisWeather